Location: Unspecified
(0.0000°N, 0.0000°E)
Time: 23:28:33
(UTC+00:00)

A-11 Canister half - Pass Details

Date: 10 October 2020
Orbit: 1515 x 1685 km, 47.2° (Epoch: 30 October)

Event Time Altitude Azimuth Distance (km) Brightness Sun altitude
Rises 21:00:51 0° 209° (SSW) 4,934 12.0 -48.0°
Reaches altitude 10° 21:04:10 10° 204° (SSW) 3,948 11.4 -48.8°
Enters shadow 21:07:22 23° 196° (SSW) 3,056 10.6 -49.6°
